DELTA 1 DEB, 13533

Orbit data source: Space-Track

DELTA 1 DEB, 13533 is space debris in LEO originally from a launch on Thu, 29 Jul 1976 UTC launched from the Air Force Western Test Range (AFWTR). Debris objects in space refer to the collection of defunct objects orbiting the Earth. Examples of debris include non-operational satellites, rocket bodies, and fragments generated from explosions, collisions, or faulty payload assembly.

Loading next visibility...
Identifier
13533, 1976-077EF
Orbit
LEO
Country
Flag of USUS
Related business
Manufacturer
Unknown
Mission
Spacecraft
Bus & Motor
Unknown
Mass
Unknown
Launch date (UTC)
1976-07-29 (50 years ago)
Launch vehicle
Unknown
Launch site
Air Force Western Test Range (AFWTR)
Object type
Payload
Rocket body
Debris
Shape & HBR
Unknown shape, 1.1 m
Radar Cross Section
Small (<0.1 m²)

Expand to show TLE details & history
Last TLE update: 1 day ago

TLE from 1 day ago
0 DELTA 1 DEB
1 13533U 76077EF  26126.85934574 -.00000131  00000-0 -13328-2 0  9990
2 13533 101.8650  93.5095 0362264 342.3944  73.6540 11.74566569 30469
Epoch: 2026-05-06T20:37Z
TLE epoch observation values (Epoch: 2026-05-06T20:37:27.471Z)
Latitude
58.10648°
Longitude
-100.20244°
Altitude
1,733.021 km
Speed
7.048 km/s
True Right ascension
04h 55m 30s
True Declination
57° 58' 14"
Sunlit
Object was in daylight at epoch
Visualization orbit readout
Latitude
Unknown
Longitude
Unknown
Altitude
Unknown
Speed
Unknown
Apparent Right ascension
Unknown
Apparent Declination
Unknown
Sunlit
N/A
Visualization observer readout
Local Sidereal Time
13:26:36
Azimuth
Unknown
Elevation
Unknown
Doppler factor
Unknown
Orbital elements
Apogee altitude
2,090.493 km
Perigee altitude
1,498.367 km
Semi-major axis
8,172.567 km
Eccentricity
0.03623
Inclination
101.865°
RAAN
93.5095°
Arg. of periapsis
342.3944°
True anomaly
77.68551°
Mean anomaly
73.654°
Eccentric anomaly
75.66499°
Mean motion
2.93769 °/min
Orbital period
122.55 mins
BSTAR
-0.0013328
Loading maneuver chart data...
Computing Atmospheric mass density...
Loading historical data...
Loading historical data...
Loading historical data...
Loading historical data...
Loading historical data...
Loading historical data...
Loading historical data...

Documentation

Showing up to 5 results
|